STARLINK-35960

Last updated on Fri Dec 19 2025 00:02:05 GMT+0000 (Coordinated Universal Time)

1 66531U 25265R 25352.47619895 .00037235 00000+0 89384-3 0 9991 2 66531 43.0014 20.8525 0001576 256.5955 103.4726 15.40714720 4641
UTC large
Height (km)
Speed (km/s)
/
Latitude / Longitude
Inclination (degrees)
Orbital Period (minutes)
Azimuth
Elevation
Range (km)
Doppler Factor

Next 0 passes for location: London (51.5072 / 0.1276)

Sorry there are no passes over London.